| time (UTC) | temp F | wind direction | speed knots | gust knots | rain 1hr in | rain 24hr in | rain mn in | humidity % | barometer mb |
| 20260505072921 | 64 | 137 | 4.3 | 6.1 | 0.00 | 0.00 | 0.00 | 65 | 1008.0 |
| 20260505072417 | 65 | 202 | 3.5 | 4.3 | 0.00 | 0.00 | 0.00 | 64 | 1007.9 |
| 20260505071914 | 64 | 155 | 7.0 | 8.7 | 0.00 | 0.00 | 0.00 | 64 | 1008.1 |
| 20260505071410 | 65 | 262 | 4.3 | 6.1 | 0.00 | 0.00 | 0.00 | 64 | 1008.2 |
| 20260505070908 | 65 | 248 | 1.7 | 2.6 | 0.00 | 0.00 | 0.00 | 64 | 1008.0 |
| 20260505070404 | 65 | 178 | 7.8 | 9.6 | 0.00 | 0.00 | 0.00 | 64 | 1008.1 |
| 20260505065900 | 65 | 190 | 3.5 | 4.3 | 0.00 | 0.00 | 0.00 | 64 | 1008.2 |
| 20260505065357 | 65 | 153 | 4.3 | 6.1 | 0.00 | 0.00 | 0.00 | 64 | 1008.1 |
| 20260505064854 | 65 | 194 | 3.5 | 4.3 | 0.00 | 0.00 | 0.00 | 64 | 1008.2 |
| 20260505064351 | 65 | 194 | 7.0 | 7.8 | 0.00 | 0.00 | 0.00 | 64 | 1008.4 |
| 20260505063850 | 64 | 222 | 2.6 | 4.3 | 0.00 | 0.00 | 0.00 | 64 | 1008.2 |
| 20260505063345 | 64 | 258 | 4.3 | 6.1 | 0.00 | 0.00 | 0.00 | 65 | 1008.2 |
| 20260505062842 | 64 | 193 | 2.6 | 4.3 | 0.00 | 0.00 | 0.00 | 66 | 1008.4 |
| 20260505062339 | 65 | 204 | 4.3 | 7.0 | 0.00 | 0.00 | 0.00 | 66 | 1008.1 |
| 20260505061836 | 64 | 239 | 5.2 | 6.1 | 0.00 | 0.00 | 0.00 | 66 | 1008.1 |
| 20260505061334 | 64 | 234 | 4.3 | 5.2 | 0.00 | 0.00 | 0.00 | 66 | 1008.2 |
| 20260505060831 | 64 | 252 | 2.6 | 5.2 | 0.00 | 0.00 | 0.00 | 67 | 1008.2 |
| 20260505060328 | 64 | 214 | 3.5 | 4.3 | 0.00 | 0.00 | 0.00 | 66 | 1008.0 |
| 20260505055824 | 64 | 235 | 4.3 | 6.1 | 0.00 | 0.00 | 0.00 | 67 | 1007.8 |
| 20260505055320 | 64 | 201 | 3.5 | 5.2 | 0.00 | 0.00 | 0.00 | 66 | 1007.9 |
| 20260505054817 | 64 | 212 | 2.6 | 2.6 | 0.00 | 0.00 | 0.00 | 68 | 1007.9 |
| 20260505054315 | 64 | 245 | 1.7 | 2.6 | 0.00 | 0.00 | 0.00 | 67 | 1007.9 |
| 20260505053813 | 64 | 172 | 4.3 | 6.1 | 0.00 | 0.00 | 0.00 | 67 | 1007.8 |
| 20260505053309 | 64 | 142 | 4.3 | 6.1 | 0.00 | 0.00 | 0.00 | 67 | 1007.9 |
| 20260505052806 | 65 | 341 | 0.0 | 0.9 | 0.00 | 0.00 | 0.00 | 66 | 1007.8 |
| 20260505052304 | 65 | 194 | 2.6 | 2.6 | 0.00 | 0.00 | 0.00 | 67 | 1008.0 |
| 20260505051800 | 65 | 257 | 4.3 | 5.2 | 0.00 | 0.00 | 0.00 | 67 | 1007.9 |
| 20260505051258 | 65 | 226 | 2.6 | 4.3 | 0.00 | 0.00 | 0.00 | 67 | 1007.9 |
| 20260505050755 | 65 | 150 | 2.6 | 2.6 | 0.00 | 0.00 | 0.00 | 67 | 1008.1 |
| 20260505050254 | 64 | 204 | 4.3 | 5.2 | 0.00 | 0.00 | 0.00 | 68 | 1008.2 |
| 20260505041723 | 66 | 96 | 1.7 | 1.7 | 0.00 | 0.00 | 0.00 | 66 | 1008.5 |
| 20260505041220 | 66 | 211 | 3.5 | 5.2 | 0.00 | 0.00 | 0.00 | 67 | 1008.4 |
| 20260505040718 | 66 | 190 | 3.5 | 4.3 | 0.00 | 0.00 | 0.00 | 67 | 1008.2 |
| 20260505040215 | 66 | 249 | 2.6 | 2.6 | 0.00 | 0.00 | 0.00 | 67 | 1008.4 |
| 20260505035712 | 66 | 224 | 2.6 | 4.3 | 0.00 | 0.00 | 0.00 | 67 | 1008.1 |
| 20260505035208 | 66 | 229 | 2.6 | 2.6 | 0.00 | 0.00 | 0.00 | 68 | 1008.4 |
| 20260505034705 | 66 | 181 | 3.5 | 4.3 | 0.00 | 0.00 | 0.00 | 68 | 1008.2 |
| 20260505034202 | 66 | 210 | 3.5 | 4.3 | 0.00 | 0.00 | 0.00 | 68 | 1008.1 |
| 20260505033658 | 66 | 75 | 2.6 | 2.6 | 0.00 | 0.00 | 0.00 | 67 | 1008.6 |
| 20260505033156 | 66 | 207 | 3.5 | 5.2 | 0.00 | 0.00 | 0.00 | 68 | 1008.1 |
| 20260505032654 | 66 | 198 | 3.5 | 4.3 | 0.00 | 0.00 | 0.00 | 68 | 1008.4 |
| 20260505032155 | 66 | 58 | 1.7 | 1.7 | 0.00 | 0.00 | 0.00 | 68 | 1008.2 |
| 20260505031652 | 66 | 147 | 2.6 | 2.6 | 0.00 | 0.00 | 0.00 | 68 | 1008.0 |
| 20260505031148 | 66 | 146 | 2.6 | 2.6 | 0.00 | 0.00 | 0.00 | 67 | 1008.0 |
| 20260505030646 | 66 | 46 | 2.6 | 2.6 | 0.00 | 0.00 | 0.00 | 67 | 1007.9 |
| 20260505030141 | 66 | 219 | 3.5 | 4.3 | 0.00 | 0.00 | 0.00 | 66 | 1008.2 |
| 20260505025638 | 67 | 236 | 3.5 | 4.3 | 0.00 | 0.00 | 0.00 | 66 | 1007.9 |
| 20260505025136 | 67 | 152 | 3.5 | 4.3 | 0.00 | 0.00 | 0.00 | 66 | 1008.2 |
| 20260505024633 | 67 | 189 | 6.1 | 7.0 | 0.00 | 0.00 | 0.00 | 65 | 1007.8 |
| 20260505024130 | 67 | 259 | 2.6 | 4.3 | 0.00 | 0.00 | 0.00 | 65 | 1007.9 |
| 20260505023628 | 67 | 273 | 3.5 | 4.3 | 0.00 | 0.00 | 0.00 | 65 | 1007.9 |
| 20260505023125 | 67 | 333 | 0.9 | 0.9 | 0.00 | 0.00 | 0.00 | 65 | 1007.8 |
| 20260505022623 | 67 | 22 | 0.9 | 1.7 | 0.00 | 0.00 | 0.00 | 65 | 1007.7 |
| 20260505022119 | 67 | 8 | 0.0 | 0.0 | 0.00 | 0.00 | 0.00 | 65 | 1007.5 |
| 20260505021616 | 67 | 18 | 0.9 | 0.9 | 0.00 | 0.00 | 0.00 | 64 | 1007.5 |
| 20260505021113 | 67 | 25 | 0.9 | 0.9 | 0.00 | 0.00 | 0.00 | 65 | 1007.4 |
| 20260505020608 | 67 | 167 | 3.5 | 4.3 | 0.00 | 0.00 | 0.00 | 64 | 1007.4 |
| 20260505020104 | 67 | 138 | 3.5 | 4.3 | 0.00 | 0.00 | 0.00 | 64 | 1007.1 |
| 20260505015602 | 67 | 175 | 2.6 | 4.3 | 0.00 | 0.00 | 0.00 | 64 | 1007.2 |
| 20260505015058 | 67 | 8 | 1.7 | 2.6 | 0.00 | 0.00 | 0.00 | 64 | 1007.0 |
| 20260505014555 | 67 | 89 | 2.6 | 4.3 | 0.00 | 0.00 | 0.00 | 63 | 1007.2 |
| 20260505014052 | 68 | 143 | 1.7 | 1.7 | 0.00 | 0.00 | 0.00 | 63 | 1007.0 |
| 20260505013549 | 68 | 14 | 0.9 | 0.9 | 0.00 | 0.00 | 0.00 | 64 | 1006.9 |
| 20260505013047 | 68 | 106 | 1.7 | 1.7 | 0.00 | 0.00 | 0.00 | 62 | 1007.0 |
| 20260505012545 | 69 | 12 | 1.7 | 1.7 | 0.00 | 0.00 | 0.00 | 61 | 1006.9 |
| 20260505012042 | 70 | 226 | 2.6 | 4.3 | 0.00 | 0.00 | 0.00 | 59 | 1007.0 |
| 20260505011537 | 70 | 102 | 0.9 | 1.7 | 0.00 | 0.00 | 0.00 | 59 | 1007.0 |
| 20260505011035 | 70 | 178 | 3.5 | 4.3 | 0.00 | 0.00 | 0.00 | 58 | 1006.8 |
| 20260505010530 | 70 | 88 | 2.6 | 4.3 | 0.00 | 0.00 | 0.00 | 59 | 1007.0 |
| 20260505010027 | 70 | 135 | 2.6 | 2.6 | 0.00 | 0.00 | 0.00 | 59 | 1006.7 |
| 20260505005523 | 70 | 191 | 1.7 | 1.7 | 0.00 | 0.00 | 0.00 | 58 | 1006.8 |
| 20260505005021 | 71 | 123 | 1.7 | 1.7 | 0.00 | 0.00 | 0.00 | 58 | 1006.6 |
| 20260505004517 | 71 | 186 | 2.6 | 2.6 | 0.00 | 0.00 | 0.00 | 57 | 1006.8 |
| 20260505004014 | 71 | 154 | 3.5 | 4.3 | 0.00 | 0.00 | 0.00 | 58 | 1006.8 |
| 20260505003511 | 71 | 169 | 3.5 | 4.3 | 0.00 | 0.00 | 0.00 | 57 | 1006.9 |
| 20260505003009 | 71 | 199 | 2.6 | 2.6 | 0.00 | 0.00 | 0.00 | 57 | 1007.0 |
| 20260505002503 | 71 | 165 | 3.5 | 4.3 | 0.00 | 0.00 | 0.00 | 56 | 1007.2 |
| 20260505002002 | 72 | 198 | 3.5 | 5.2 | 0.00 | 0.00 | 0.00 | 56 | 1007.0 |
| 20260505001459 | 72 | 290 | 2.6 | 4.3 | 0.00 | 0.00 | 0.00 | 56 | 1007.0 |
| 20260505000956 | 72 | 228 | 3.5 | 4.3 | 0.00 | 0.00 | 0.00 | 55 | 1007.3 |
| 20260505000454 | 73 | 146 | 2.6 | 4.3 | 0.00 | 0.00 | 0.00 | 54 | 1007.1 |
| 20260504235951 | 73 | 207 | 2.6 | 4.3 | 0.00 | 0.00 | 0.00 | 54 | 1007.0 |
| 20260504235448 | 73 | 139 | 4.3 | 6.1 | 0.00 | 0.00 | 0.00 | 54 | 1007.2 |
| 20260504234944 | 73 | 210 | 3.5 | 4.3 | 0.00 | 0.00 | 0.00 | 53 | 1007.2 |
| 20260504234442 | 73 | 238 | 4.3 | 4.3 | 0.00 | 0.00 | 0.00 | 52 | 1007.3 |
| 20260504233938 | 73 | 213 | 5.2 | 7.0 | 0.00 | 0.00 | 0.00 | 52 | 1007.6 |
| 20260504233434 | 73 | 211 | 1.7 | 1.7 | 0.00 | 0.00 | 0.00 | 52 | 1007.7 |
| 20260504232931 | 74 | 251 | 0.9 | 1.7 | 0.00 | 0.00 | 0.00 | 52 | 1007.5 |
| 20260504232428 | 74 | 353 | 0.9 | 1.7 | 0.00 | 0.00 | 0.00 | 51 | 1007.5 |
| 20260504231925 | 74 | 345 | 1.7 | 1.7 | 0.00 | 0.00 | 0.00 | 51 | 1007.6 |
| 20260504231421 | 75 | 120 | 1.7 | 2.6 | 0.00 | 0.00 | 0.00 | 52 | 1007.6 |
| 20260504230918 | 75 | 185 | 4.3 | 5.2 | 0.00 | 0.00 | 0.00 | 51 | 1007.7 |
| 20260504230415 | 75 | 227 | 7.8 | 8.7 | 0.00 | 0.00 | 0.00 | 50 | 1007.7 |
| 20260504225914 | 75 | 213 | 4.3 | 5.2 | 0.00 | 0.00 | 0.00 | 51 | 1007.7 |
| 20260504225410 | 76 | 117 | 4.3 | 5.2 | 0.00 | 0.00 | 0.00 | 50 | 1007.9 |
| 20260504224908 | 75 | 228 | 4.3 | 5.2 | 0.00 | 0.00 | 0.00 | 49 | 1007.7 |
| 20260504224404 | 75 | 223 | 7.0 | 9.6 | 0.00 | 0.00 | 0.00 | 47 | 1007.8 |
| 20260504223901 | 75 | 208 | 3.5 | 4.3 | 0.00 | 0.00 | 0.00 | 48 | 1007.8 |
| 20260504223356 | 76 | 165 | 7.0 | 7.8 | 0.00 | 0.00 | 0.00 | 46 | 1007.9 |
| 20260504222853 | 76 | 315 | 2.6 | 4.3 | 0.00 | 0.00 | 0.00 | 47 | 1007.8 |
| 20260504222350 | 76 | 165 | 7.0 | 8.7 | 0.00 | 0.00 | 0.00 | 47 | 1007.9 |
| 20260504221848 | 76 | 270 | 2.6 | 2.6 | 0.00 | 0.00 | 0.00 | 46 | 1007.9 |
| 20260504221345 | 77 | 157 | 2.6 | 4.3 | 0.00 | 0.00 | 0.00 | 47 | 1008.0 |
| 20260504220842 | 77 | 221 | 10.4 | 14.8 | 0.00 | 0.00 | 0.00 | 45 | 1008.1 |
| 20260504220338 | 76 | 223 | 2.6 | 4.3 | 0.00 | 0.00 | 0.00 | 47 | 1008.0 |
| 20260504215836 | 77 | 207 | 6.1 | 7.8 | 0.00 | 0.00 | 0.00 | 50 | 1008.0 |
| 20260504215332 | 76 | 156 | 7.8 | 11.3 | 0.00 | 0.00 | 0.00 | 51 | 1007.9 |
| 20260504214828 | 76 | 177 | 6.1 | 8.7 | 0.00 | 0.00 | 0.00 | 52 | 1008.0 |
| 20260504214325 | 76 | 178 | 3.5 | 6.1 | 0.00 | 0.00 | 0.00 | 51 | 1007.9 |
| 20260504213822 | 77 | 252 | 4.3 | 7.8 | 0.00 | 0.00 | 0.00 | 50 | 1007.9 |
| 20260504213318 | 77 | 152 | 5.2 | 6.1 | 0.00 | 0.00 | 0.00 | 49 | 1008.1 |
| 20260504212815 | 76 | 280 | 3.5 | 5.2 | 0.00 | 0.00 | 0.00 | 50 | 1008.1 |
| 20260504212311 | 76 | 291 | 2.6 | 2.6 | 0.00 | 0.00 | 0.00 | 54 | 1008.1 |
| 20260504211809 | 78 | 334 | 0.9 | 0.9 | 0.00 | 0.00 | 0.00 | 50 | 1008.5 |
| 20260504211305 | 77 | 69 | 2.6 | 2.6 | 0.00 | 0.00 | 0.00 | 51 | 1008.4 |
| 20260504210803 | 76 | 48 | 2.6 | 4.3 | 0.00 | 0.00 | 0.00 | 52 | 1008.4 |
| 20260504210300 | 77 | 350 | 4.3 | 6.1 | 0.00 | 0.00 | 0.00 | 52 | 1008.2 |
| 20260504205757 | 77 | 302 | 0.9 | 0.9 | 0.00 | 0.00 | 0.00 | 50 | 1008.6 |
| 20260504205254 | 78 | 327 | 1.7 | 1.7 | 0.00 | 0.00 | 0.00 | 49 | 1008.5 |
| 20260504204752 | 77 | 306 | 1.7 | 1.7 | 0.00 | 0.00 | 0.00 | 49 | 1008.5 |
| 20260504204250 | 77 | 254 | 4.3 | 6.1 | 0.00 | 0.00 | 0.00 | 50 | 1008.8 |
| 20260504203750 | 78 | 220 | 3.5 | 5.2 | 0.00 | 0.00 | 0.00 | 48 | 1008.8 |
| 20260504203246 | 77 | 320 | 0.9 | 1.7 | 0.00 | 0.00 | 0.00 | 52 | 1008.8 |
| 20260504202741 | 77 | 149 | 1.7 | 2.6 | 0.00 | 0.00 | 0.00 | 51 | 1008.9 |
| 20260504202239 | 75 | 276 | 1.7 | 2.6 | 0.00 | 0.00 | 0.00 | 54 | 1009.1 |
| 20260504201736 | 75 | 246 | 0.9 | 1.7 | 0.00 | 0.00 | 0.00 | 54 | 1009.0 |
| 20260504201233 | 74 | 152 | 0.9 | 1.7 | 0.00 | 0.00 | 0.00 | 55 | 1009.1 |
| 20260504200730 | 74 | 309 | 0.0 | 0.9 | 0.00 | 0.00 | 0.00 | 57 | 1009.5 |
| 20260504200226 | 74 | 202 | 2.6 | 2.6 | 0.00 | 0.00 | 0.00 | 58 | 1009.3 |
| 20260504195723 | 74 | 198 | 4.3 | 5.2 | 0.00 | 0.00 | 0.00 | 56 | 1009.1 |
| 20260504195219 | 76 | 165 | 6.1 | 7.0 | 0.00 | 0.00 | 0.00 | 53 | 1009.4 |
| 20260504194716 | 75 | 269 | 2.6 | 2.6 | 0.00 | 0.00 | 0.00 | 57 | 1009.4 |
| 20260504194212 | 75 | 218 | 3.5 | 4.3 | 0.00 | 0.00 | 0.00 | 55 | 1009.6 |
| 20260504193708 | 75 | 167 | 4.3 | 5.2 | 0.00 | 0.00 | 0.00 | 55 | 1009.6 |
| 20260504193206 | 76 | 282 | 2.6 | 2.6 | 0.00 | 0.00 | 0.00 | 52 | 1009.9 |
| 20260504192704 | 77 | 227 | 5.2 | 7.0 | 0.00 | 0.00 | 0.00 | 53 | 1010.0 |
| 20260504192202 | 75 | 259 | 3.5 | 5.2 | 0.00 | 0.00 | 0.00 | 56 | 1010.0 |
| 20260504191700 | 76 | 252 | 3.5 | 6.1 | 0.00 | 0.00 | 0.00 | 53 | 1009.9 |
| 20260504191156 | 75 | 317 | 4.3 | 4.3 | 0.00 | 0.00 | 0.00 | 56 | 1010.0 |
| 20260504190652 | 75 | 3 | 0.9 | 0.9 | 0.00 | 0.00 | 0.00 | 59 | 1010.1 |
| 20260504190148 | 74 | 204 | 4.3 | 7.0 | 0.00 | 0.00 | 0.00 | 56 | 1010.0 |
| 20260504185645 | 72 | 4 | 0.9 | 1.7 | 0.00 | 0.00 | 0.00 | 60 | 1010.1 |
| 20260504185136 | 72 | 238 | 1.7 | 1.7 | 0.00 | 0.00 | 0.00 | 60 | 1010.3 |
| 20260504184632 | 73 | 357 | 4.3 | 7.0 | 0.00 | 0.00 | 0.00 | 58 | 1010.2 |
| 20260504184127 | 72 | 324 | 1.7 | 2.6 | 0.00 | 0.00 | 0.00 | 61 | 1010.4 |
| 20260504183624 | 72 | 16 | 2.6 | 2.6 | 0.00 | 0.00 | 0.00 | 61 | 1010.3 |
| 20260504183122 | 72 | 209 | 4.3 | 6.1 | 0.00 | 0.00 | 0.00 | 60 | 1010.3 |
| 20260504182619 | 71 | 129 | 3.5 | 4.3 | 0.00 | 0.00 | 0.00 | 60 | 1010.2 |
| 20260504182117 | 72 | 264 | 2.6 | 4.3 | 0.00 | 0.00 | 0.00 | 62 | 1009.9 |
| 20260504181614 | 72 | 341 | 3.5 | 4.3 | 0.00 | 0.00 | 0.00 | 59 | 1010.1 |
| 20260504181111 | 72 | 340 | 0.9 | 0.9 | 0.00 | 0.00 | 0.00 | 59 | 1010.0 |
| 20260504180610 | 71 | 266 | 1.7 | 2.6 | 0.00 | 0.00 | 0.00 | 62 | 1009.9 |
| 20260504180109 | 70 | 205 | 6.1 | 7.8 | 0.00 | 0.00 | 0.00 | 62 | 1010.0 |
| 20260504175606 | 70 | 276 | 7.0 | 8.7 | 0.00 | 0.00 | 0.00 | 63 | 1010.2 |
| 20260504175102 | 69 | 139 | 4.3 | 6.1 | 0.00 | 0.00 | 0.00 | 63 | 1010.2 |
| 20260504174600 | 68 | 344 | 2.6 | 4.3 | 0.00 | 0.00 | 0.00 | 65 | 1010.2 |
| 20260504174057 | 68 | 188 | 6.1 | 7.0 | 0.00 | 0.00 | 0.00 | 65 | 1010.2 |
| 20260504173554 | 67 | 154 | 4.3 | 6.1 | 0.00 | 0.00 | 0.00 | 65 | 1010.5 |
| 20260504173051 | 67 | 201 | 7.8 | 11.3 | 0.00 | 0.00 | 0.00 | 65 | 1010.3 |
| 20260504172547 | 67 | 185 | 7.0 | 9.6 | 0.00 | 0.00 | 0.00 | 65 | 1010.2 |
| 20260504172044 | 67 | 228 | 4.3 | 5.2 | 0.00 | 0.00 | 0.00 | 65 | 1010.1 |
| 20260504171541 | 66 | 204 | 4.3 | 6.1 | 0.00 | 0.00 | 0.00 | 65 | 1010.2 |
| 20260504171038 | 65 | 198 | 3.5 | 4.3 | 0.00 | 0.00 | 0.00 | 67 | 1010.2 |
| 20260504170533 | 65 | 172 | 3.5 | 5.2 | 0.00 | 0.00 | 0.00 | 67 | 1010.1 |
| 20260504150918 | 65 | 266 | 1.7 | 1.7 | 0.00 | 0.00 | 0.00 | 67 | 1010.6 |
| 20260504150414 | 64 | 162 | 3.5 | 4.3 | 0.00 | 0.00 | 0.00 | 67 | 1010.8 |
| 20260504140841 | 61 | 184 | 4.3 | 5.2 | 0.00 | 0.00 | 0.00 | 70 | 1010.7 |
| 20260504140336 | 60 | 238 | 4.3 | 6.1 | 0.00 | 0.00 | 0.00 | 70 | 1010.8 |
| 20260504130805 | 56 | 153 | 5.2 | 7.0 | 0.00 | 0.00 | 0.00 | 74 | 1011.7 |
| 20260504130301 | 56 | 185 | 6.1 | 7.0 | 0.00 | 0.00 | 0.00 | 74 | 1011.6 |
| 20260504120225 | 55 | 238 | 4.3 | 5.2 | 0.00 | 0.00 | 0.00 | 73 | 1012.0 |
| 20260504110647 | 53 | 204 | 3.5 | 5.2 | 0.00 | 0.00 | 0.00 | 72 | 1011.4 |
| 20260504110144 | 52 | 196 | 1.7 | 1.7 | 0.00 | 0.00 | 0.00 | 74 | 1011.6 |
| 20260504100609 | 50 | 9 | 0.9 | 0.9 | 0.00 | 0.00 | 0.00 | 75 | 1011.8 |
| 20260504100107 | 50 | 7 | 0.9 | 1.7 | 0.00 | 0.00 | 0.00 | 75 | 1011.9 |
| 20260504082002 | 50 | 175 | 1.7 | 2.6 | 0.00 | 0.00 | 0.00 | 72 | 1012.3 |
| 20260504081500 | 49 | 55 | 2.6 | 2.6 | 0.00 | 0.00 | 0.00 | 72 | 1012.3 |
| 20260504080950 | 50 | 183 | 1.7 | 1.7 | 0.00 | 0.00 | 0.00 | 71 | 1012.6 |
| 20260504080447 | 50 | 94 | 1.7 | 1.7 | 0.00 | 0.00 | 0.00 | 69 | 1012.4 |